Location: Beyrie
(43.3667°N, 0.4667°W)
Time: 21:01:21
(UTC+00:00)

Daily predictions for brighter satellites

Satellite Brightness Start Highest point End
(mag) Time Altitude Azimuth Time Altitude Azimuth Time Altitude Azimuth
Gbstr 26 Del rocket 4.4 17:22:38 10° WNW 17:29:29 67° NNE 17:37:24 10° ESE
BREEZE M DEB (TANK) 3.9 17:28:26 10° WNW 17:32:03 89° SSW 17:55:28 10° ESE
CZ-4B R/B 3.6 17:27:33 10° SE 17:32:54 45° ENE 17:38:16 10° N
NOAA 6 4.3 17:28:23 10° SSE 17:33:34 81° WSW 17:38:48 10° NNW
H-2A R/B 2.4 17:30:02 10° SE 17:35:09 47° ENE 17:40:22 10° N
Iridium 4 Rocket 4.4 17:32:08 10° NNE 17:35:49 23° E 17:39:44 10° SE
PAYLOAD B 4.2 17:32:24 10° SSE 17:37:52 69° ENE 17:43:24 10° N
Cosmos 1356 4.3 17:35:01 10° NNW 17:38:20 53° W 17:41:38 10° S
Cosmos 389 Rocket 2.5 17:38:55 10° SSW 17:42:18 79° W 17:45:43 10° N
ARGOS 3.8 17:38:02 10° SE 17:42:51 34° ENE 17:47:41 10° N
CZ-2C R/B 4.3 17:37:14 10° S 17:42:55 55° W 17:48:36 10° NNW
Cosmos 1758 4.3 17:40:58 10° SSW 17:44:51 52° W 17:48:45 10° N
Cosmos 2369 4.1 17:39:15 10° SSW 17:44:52 69° WNW 17:50:34 10° NNE
Cosmos 2263 Rocket 2.4 17:40:58 10° NNW 17:46:23 50° ENE 17:51:47 10° SE
Cosmos 1980 Rocket 2.3 17:41:14 10° SSW 17:46:53 85° WNW 17:52:38 10° NNE
Cosmos 724 4.5 17:42:11 10° NNW 17:48:00 52° NE 17:53:40 10° SE
MOS 1-B 4.3 17:42:50 10° SSE 17:48:37 81° ENE 17:54:25 10° NNW
Cosmos 371 Rocket 4.1 17:46:24 10° SSE 17:50:38 31° E 17:54:55 10° NE
Cosmos 1953 2.3 17:46:49 10° S 17:50:50 71° E 17:54:53 10° NNE
SKYMED 2 3.8 17:47:16 10° NNE 17:51:28 46° E 17:55:39 10° S
Cosmos 1821 Rocket 4.0 17:45:12 10° S 17:51:34 76° E 17:57:56 10° N
SMAP 4.1 17:48:59 10° S 17:53:31 52° W 17:58:04 10° NNW
Meteor 1-21 Rocket 4.3 17:47:46 10° N 17:53:40 75° E 17:59:35 10° SSE
CZ-2D R/B 3.2 17:50:07 10° SSE 17:53:57 82° ENE 17:57:50 10° N
USA 215 4.1 17:49:05 10° NE 17:55:14 45° NNW 18:01:24 10° W
YAOGAN 1 3.7 17:54:14 10° ESE 17:57:41 24° ENE 18:01:09 10° NNE
Cosmos 1455 Rocket 3.1 17:54:11 10° S 17:58:32 60° E 18:02:55 10° NNE
Cosmos 1125 Rocket 4.5 17:54:58 10° SW 18:00:04 51° WNW 18:05:11 10° N
H-2A R/B 3.3 17:56:45 10° SE 18:00:32 30° ENE 18:04:13 10° N
Cosmos 1269 Rocket 4.1 17:55:38 10° NNW 18:00:51 56° ENE 18:06:02 10° SE
SL-8 R/B 3.7 17:56:43 10° WSW 18:01:31 88° NNW 18:05:47 13° ENE
Cosmos 1697 Rocket 4.3 17:58:22 10° WSW 18:03:30 35° NW 18:08:39 10° N
CZ-2C R/B 2.8 17:58:35 10° NNE 18:04:06 55° E 18:09:30 10° S
H-2A R/B 3.4 18:01:19 10° NE 18:04:10 18° E 18:07:02 10° SE
CZ-4 R/B 2.3 18:03:20 10° SE 18:06:43 27° ENE 18:10:11 10° N
Tiangong 1.7 18:04:58 10° WSW 18:08:02 44° SSE 18:09:58 19° ESE
Cosmos 1934 Rocket 4.0 18:02:11 10° SSE 18:08:05 54° E 18:13:59 10° NNE
Cosmos 1908 4.0 18:06:31 10° SSW 18:10:19 56° W 18:14:09 10° N
Okean O Rocket 1.5 18:07:55 10° SSE 18:12:14 76° ENE 18:16:36 10° N
CZ-4 R/B 4.4 18:08:19 10° SSE 18:12:23 62° ENE 18:16:29 10° N
Cosmos 1544 Rocket 3.8 18:08:14 10° SSE 18:12:31 48° E 18:16:50 10° NNE
NOSS 3-1 (A) 4.0 18:12:59 10° SSE 18:17:15 26° ESE 18:20:10 18° ENE
ATLAS 3B R/B 4.2 18:13:03 10° W 18:18:52 32° NW 18:24:58 10° NNE
Cosmos 1844 Rocket 3.9 18:15:31 10° N 18:19:52 23° NE 18:21:39 19° ENE
SL-08 RB Rocket 3.9 18:17:06 10° SE 18:21:28 49° ENE 18:25:54 10° N
NOSS 8 (F) 4.2 18:19:18 10° SSW 18:22:55 71° SE 18:24:43 22° NE
Meteor 1-4 Rocket 3.2 18:22:06 10° SSE 18:25:10 29° E 18:25:30 29° E
Cosmos 2278 4.4 18:21:08 10° SW 18:26:41 56° WNW 18:32:18 10° NNE
Cosmos 44 4.5 18:24:08 10° SSE 18:28:31 26° ESE 18:29:37 24° E
USA 267 4.1 18:22:49 10° SSE 18:29:08 51° SW 18:35:31 10° WNW
Okean-O 3.4 18:29:03 26° E 18:30:11 29° ENE 18:34:01 10° N
Cosmos 2123 Rocket 3.9 18:24:32 10° N 18:30:54 80° E 18:37:12 10° S
HJ-1C 3.8 18:31:16 36° ENE 18:31:19 36° ENE 18:34:20 10° N
Okean 1-7 Rocket 3.5 18:27:53 10° N 18:32:19 81° E 18:36:45 10° S
CZ-2C R/B 2.8 18:29:58 10° SW 18:32:36 20° S 18:34:01 15° SSE
Landsat 5 4.0 18:30:48 10° N 18:35:10 65° WNW 18:39:36 10° SSW
IRAS Rocket 4.1 18:31:31 10° NNE 18:37:04 69° ESE 18:42:33 10° S
Feng Yun 1-1 Rocket 4.2 18:32:02 10° SSE 18:37:33 79° ENE 18:43:16 10° NNW
NOSS 2-3 (D) 3.4 18:33:46 10° SSW 18:37:43 59° ESE 18:40:04 25° NE
Cosmos 1602 Rocket 3.8 18:34:11 10° N 18:38:21 43° ENE 18:40:28 25° SE
COSMO-SKYMED 1 3.4 18:35:20 10° N 18:39:34 52° WNW 18:43:46 10° SSW
SL-16 R/B 2.1 18:35:08 10° SSW 18:40:46 74° ESE 18:46:27 10° NNE
NOSS 3-1 (C) 3.0 18:37:50 10° SSW 18:42:59 77° ESE 18:48:19 13° NE
Cosmos 1300 3.0 18:43:21 10° SSW 18:47:07 65° W 18:50:55 10° N
Meteor 2-10 Rocket 3.6 18:41:52 10° S 18:47:23 58° E 18:52:42 10° NNE
NOSS 2-3 (C) 3.3 18:46:21 10° SSW 18:50:21 84° SE 18:52:35 29° NE
Cosmos 304 Rocket 3.6 18:45:46 10° S 18:50:29 66° ESE 18:54:51 12° NNE
ATLAS 5 CENTAUR R/B 3.4 18:47:52 10° W 18:51:12 25° NW 18:54:53 10° NNE
CZ-4C R/B 4.5 18:51:54 10° N 18:55:02 36° WNW 18:58:04 10° SW
Cosmos 2322 Rocket 2.0 18:49:34 10° SSW 18:55:08 73° ESE 19:00:45 10° NNE
Lacrosse 4 Rocket 1.6 18:54:49 10° NNW 18:59:03 53° ENE 18:59:08 53° ENE
SWARM A 4.2 18:57:41 10° S 19:00:59 78° W 19:04:17 10° N
Cosmos 1844 4.2 18:57:20 10° NNW 19:02:44 39° ENE 19:03:00 38° ENE
Cosmos 332 Rocket 3.7 18:58:15 10° SSW 19:03:08 88° ESE 19:07:46 12° NNE
X-37B 1.4 19:03:35 10° WNW 19:06:02 49° WNW 19:06:02 49° WNW
Cosmos 2360 Rocket 2.2 19:01:28 10° S 19:06:56 54° ESE 19:08:09 45° ENE
Cosmos 1758 Rocket 4.0 19:03:06 10° N 19:06:22 45° NNE 19:06:22 45° NNE
Cosmos 839 Rocket 4.1 19:04:13 10° NNW 19:11:50 86° ENE 19:14:59 33° SE
DMSP B5D2-2 4.0 19:08:18 10° NNE 19:13:36 84° WNW 19:18:49 10° SSW
Cosmos 614 Rocket 3.8 19:09:16 10° NNW 19:14:20 70° ENE 19:14:49 65° ESE
Cosmos 1626 Rocket 4.3 19:10:15 10° NNW 19:14:26 51° W 19:18:36 10° S
H-2A R/B 4.4 19:10:27 10° SSW 19:14:46 25° W 19:19:10 10° NW
Cosmos 1605 Rocket 4.2 19:11:26 10° SSW 19:17:40 71° W 19:24:01 10° N
Cosmos 2344 4.3 19:12:32 10° NW 19:21:49 77° NE 19:29:03 30° SE
Orbus 7S? 4.1 19:18:11 10° NW 19:25:39 58° NNE 19:25:39 58° NNE
In-Cosmos 22 Rocket 4.1 19:20:46 10° NNW 19:26:06 80° W 19:28:29 34° S
Cosmos 1447 Rocket 4.4 19:22:21 10° N 19:28:31 81° W 19:34:30 11° S
Cosmos 2263 Rocket 4.3 19:25:34 10° NW 19:29:57 24° WSW 19:34:19 10° SSW
BREEZE-M DEB (TANK) 4.2 19:25:50 10° WNW 19:28:50 34° NW 19:28:50 34° NW
MetOp-A 4.1 19:28:29 39° S 19:30:31 79° WSW 19:35:55 10° NNW
CSL-04 Debris 4.1 19:31:36 50° S 19:33:03 81° WSW 19:38:30 10° NNW
YAOGAN 1 4.2 19:29:43 10° SSW 19:33:37 33° W 19:37:32 10° NNW
H-2A R/B 3.2 19:36:26 10° N 19:40:17 39° WNW 19:44:10 10° SW
CZ-4 R/B 3.6 19:38:22 10° SSW 19:41:39 25° W 19:45:01 10° NW
Tiangong 4.2 19:41:34 10° W 19:42:12 15° W 19:42:12 15° W
USA 229 DEB 3.6 19:38:43 10° SW 19:45:04 76° NW 19:47:17 45° NNE
USA 229 3.6 19:38:49 10° SW 19:45:10 77° NW 19:47:19 46° NNE
CSL-04 Rocket 3.9 19:46:56 57° SSW 19:47:51 67° WSW 19:53:24 10° NNW
BREEZE-M R/B 3.8 19:56:19 10° WNW 19:58:37 45° WNW 19:58:37 45° WNW
Cosmos 2251 Rocket 4.3 19:55:40 10° NNW 20:00:31 48° W 20:00:31 48° W
Cosmos 1844 Rocket 3.2 19:58:42 10° NNW 20:03:21 55° WNW 20:03:21 55° WNW
Okean-O 4.5 20:06:38 28° W 20:06:38 28° W 20:10:25 10° NW
NOSS 3-1 (A) 3.9 20:02:27 10° WSW 20:07:37 50° NW 20:07:41 50° NW
Cosmos 2278 Rocket 4.4 20:15:50 10° N 20:17:04 16° N 20:17:04 16° N
SL-16 R/B 4.5 20:21:21 10° W 20:25:29 20° NW 20:29:38 10° N
CENTAUR R/B 4.4 20:27:47 10° NNW 20:33:03 28° NNE 20:33:03 28° NNE
Cosmos 2322 Rocket 4.4 20:35:43 10° W 20:39:47 20° NW 20:42:44 14° NNW
Cosmos 2360 Rocket 4.2 20:46:37 10° WSW 20:50:02 24° WNW 20:50:02 24° WNW
